Regional Weather Roundup
Issued by NWS State College, PA

Current Version | Previous Version | Text Only | Print | Product List | Glossary On
Versions: 1 2 3 4 5 6 7 8 9 10 11 12 13 14 15 16 17 18 19 20 21 22 23 24 25 26 27 28 29 30 31 32 33 34 35 36 37 38 39 40 41 42 43 44 45 46 47 48 49 50
000
ASUS41 KCTP 162310
RWRCTP

REGIONAL WEATHER ROUNDUP
NATIONAL WEATHER SERVICE STATE COLLEGE PA
700 PM EDT MON MAY 16 2022

Note: "fair" indicates few or no clouds below 12,000 feet with no
significant weather and/or obstructions to visibility.

* = STATION THAT DOES NOT REPORT PRECIPITATION /E.G. RAIN...SNOW...ETC/
    THUNDER OR FOG.

PAZ002>004-007>009-013>016-020>023-029>032-170000-
WESTERN PENNSYLVANIA

CITY           SKY/WX    TMP DP  RH WIND       PRES   REMARKS
ERIE           PTSUNNY   61  48  62 MISG      29.79R
MEADVILLE      PTSUNNY   63  48  58 NW7G17    29.78R
FRANKLIN       PTSUNNY   64  48  56 W9G18     29.79R
NEW CASTLE     TSTM      64  50  60 W15G21    29.79R
BEAVER COUNTY  PTSUNNY   69  44  40 W7        29.78S
BUTLER         PTSUNNY   66  49  54 W8        29.78S
PITTSBURGH INT MOSUNNY   68  46  45 W15G23    29.78S
PITTSBURGH     MOSUNNY   68  47  46 NW7       29.77S
INDIANA*       MOSUNNY   66  48  52 NW14G22   29.80S
LATROBE        MOSUNNY   68  48  49 W13G20    29.78S
WASHINGTON CO* MOSUNNY   65  50  58 W8        29.83S
$$

PAZ004>006-010>012-017>019-024>028-033>037-041-042-045-046-049>053-170000-
CENTRAL PENNSYLVANIA

CITY           SKY/WX    TMP DP  RH WIND       PRES   REMARKS
BRADFORD       PTSUNNY   59  48  67 W13       29.75R
ST MARYS       CLOUDY    57  48  72 NW9       29.79
DUBOIS         MOSUNNY   62  43  49 NW16G25   29.75R
CLEARFIELD     MOSUNNY   64  44  48 NW17G23   29.75R
JOHNSTOWN      MOSUNNY   61  45  55 W15G28    29.78R
SOMERSET       FAIR      59  46  63 W15G24    29.80S
ALTOONA        SUNNY     66  46  48 NW21G28   29.75R
STATE COLLEGE  MOSUNNY   64  46  52 NW14G25   29.72R
REEDSVILLE       N/A     66  48  52 W12G29    29.70R
WELLSBORO      MOCLDY    55  50  82 W21       29.70R
WILLIAMSPORT   CLOUDY    64  51  62 W18G26    29.66R
SELINSGROVE    CLOUDY    66  52  60 W9        29.68R
FT INDIANTOWN  PTSUNNY   69  51  53 W13G30    29.63R
CAPITAL CITY   MOSUNNY   73  49  42 NW23G32   29.66R
HARRISBURG     PTSUNNY   71  50  47 NW24G31   29.65R
YORK           MOSUNNY   70  50  49 W18G28    29.67R
$$

PAZ038>040-043-044-047-048-054-055-060>062-067>071-170000-
EASTERN PENNSYLVANIA

CITY           SKY/WX    TMP DP  RH WIND       PRES   REMARKS
TOWANDA        PTCLDY    61  55  82 W7G17     29.68R
SCRANTON       CLOUDY    70  54  56 W12       29.60R
MOUNT POCONO   PTSUNNY   64  52  64 W17G35    29.62R
HAZLETON       MOCLDY    66  50  55 W7G22     29.67R
LEHIGHTON      FAIR      70  52  52 W6        29.61R
ALLENTOWN      CLOUDY    68  60  75 W7        29.59R
QN CITY/ALNTWN LGT RAIN  68  63  83 SW6       29.60S
QUAKERTOWN*    MOCLDY    66  66 100 CALM      29.61S
PERKASIE*      PTCLDY    64  64 100 SW3       29.62S
DOYLESTOWN     TSTM      64  61  90 VRB6      29.61R
READING        MOSUNNY   72  57  59 W14G21    29.61R
LANCASTER      MOSUNNY   70  61  73 W10       29.63R
COATESVILLE    PTCLDY    68  61  77 W10       29.64R
WEST CHESTER   PTCLDY    64  61  88 CALM      29.64S
POTTSTOWN      MOSUNNY   63  60  90 S5        29.63R
BLUE BELL      CLOUDY    64  61  92 SW3       29.62F
NORTH PHILA    LGT RAIN  64  61  90 W8        29.63R
PHILADELPHIA   PTSUNNY   68  59  73 W12G25    29.64R THUNDER
$$



USA.gov is the U.S. government's official web portal to all federal, state and local government web resources and services.